GW2072 Weather Reports


time (UTC)temp
F
wind
direction
speed
knots
gust
knots
rain 1hr
in
rain 24hr
in
rain mn
in
humidity
%
barometer
mb
20260503054528 38 226 1.7 2.6 0.00 0.00 0.00 61 1017.4
20260503053004 38 233 0.9 2.6 0.00 0.00 0.00 61 1017.4
20260503051512 37 238 0.9 2.6 0.00 0.00 0.00 62 1017.5
20260503050016 38 256 0.0 0.0 0.00 0.00 0.00 64 1017.6
20260503044540 38 241 0.9 1.7 0.00 0.00 0.00 63 1017.7
20260503043039 38 259 0.9 1.7 0.00 0.00 0.00 64 1017.7
20260503041508 38 244 0.9 2.6 0.00 0.00 0.00 64 1017.6
20260503040012 38 264 0.0 0.0 0.00 0.00 0.00 64 1017.7
20260503034522 38 263 0.0 1.7 0.00 0.00 0.00 63 1017.7
20260503033022 37 300 0.0 0.0 0.00 0.00 0.00 63 1017.7
20260503031529 36 300 0.0 0.0 0.00 0.00 0.00 66 1017.8
20260503030029 37 300 0.0 0.0 0.00 0.00 0.00 63 1017.9
20260503024515 38 300 0.0 0.0 0.00 0.00 0.00 62 1017.9
20260503023020 37 300 0.0 0.9 0.00 0.00 0.00 62 1017.9
20260503021522 38 300 0.0 0.9 0.00 0.00 0.00 60 1017.9
20260503020028 39 300 0.0 0.9 0.00 0.00 0.00 61 1017.8
20260503014528 40 307 0.0 0.0 0.00 0.00 0.00 58 1017.8
20260503013014 42 307 0.0 0.0 0.00 0.00 0.00 56 1017.7
20260503011523 43 308 0.0 0.9 0.00 0.00 0.00 52 1017.7
20260503010031 44 305 0.9 2.6 0.00 0.00 0.00 53 1017.6
20260503004528 45 302 1.7 6.1 0.00 0.00 0.00 50 1017.5
20260503003010 46 297 4.3 7.8 0.00 0.00 0.00 45 1017.5
20260503001527 47 313 4.3 12.2 0.00 0.00 0.00 43 1017.3
20260503000003 48 274 5.2 9.6 0.00 0.00 0.00 46 1017.3
20260502234506 49 281 4.3 9.6 0.00 0.00 0.00 45 1017.2
20260502233008 49 319 5.2 11.3 0.00 0.00 0.00 41 1017.3
20260502231532 49 317 3.5 13.9 0.00 0.00 0.00 47 1017.2
20260502230020 50 277 3.5 7.0 0.00 0.00 0.00 45 1017.2
20260502224502 49 314 2.6 8.7 0.00 0.00 0.00 44 1017.3
20260502223022 49 300 3.5 10.4 0.00 0.00 0.00 43 1017.3
20260502221513 50 303 4.3 7.0 0.00 0.00 0.00 45 1017.3
20260502220016 48 337 4.3 8.7 0.00 0.00 0.00 46 1017.5
20260502214520 48 332 5.2 9.6 0.00 0.00 0.00 46 1017.4
20260502213004 50 327 1.7 8.7 0.00 0.00 0.00 50 1017.5
20260502211510 48 18 5.2 10.4 0.00 0.00 0.00 48 1017.5
20260502210014 48 287 1.7 8.7 0.00 0.00 0.00 50 1017.6
20260502204518 47 297 5.2 8.7 0.00 0.00 0.00 52 1017.8
20260502203022 47 287 5.2 8.7 0.00 0.00 0.00 51 1017.8
20260502201525 48 329 3.5 7.0 0.00 0.00 0.00 50 1018.0
20260502200008 47 341 4.3 8.7 0.00 0.00 0.00 49 1018.2
20260502194515 47 291 4.3 7.8 0.00 0.00 0.00 48 1018.4
20260502193021 48 299 4.3 6.1 0.00 0.00 0.00 46 1018.4
20260502191529 48 331 6.1 10.4 0.00 0.00 0.00 50 1018.5
20260502190038 46 300 5.2 9.6 0.00 0.00 0.00 50 1018.6
20260502184514 47 326 2.6 7.0 0.00 0.00 0.00 52 1018.6
20260502183018 46 300 5.2 11.3 0.00 0.00 0.00 50 1018.8
20260502181525 47 8 5.2 9.6 0.00 0.00 0.00 50 1018.8
20260502163028 44 345 6.1 9.6 0.00 0.00 0.00 54 1019.5
20260502161514 46 304 7.8 12.2 0.00 0.00 0.00 56 1019.5
20260502151554 44 293 5.2 10.4 0.00 0.00 0.00 60 1019.6
20260502123029 37 355 1.7 10.4 0.00 0.04 0.00 72 1019.1
20260502121526 36 311 2.6 7.8 0.00 0.07 0.00 75 1019.3
20260502114514 33 321 1.7 5.2 0.00 0.08 0.00 79 1019.1
20260502113027 32 311 2.6 4.3 0.00 0.08 0.00 80 1018.9
20260502111523 31 323 2.6 3.5 0.00 0.08 0.00 81 1018.7
20260502110034 30 313 1.7 3.5 0.00 0.08 0.00 81 1018.7
20260502104509 30 304 2.6 4.3 0.00 0.09 0.00 81 1018.6
20260502103012 30 313 2.6 3.5 0.00 0.09 0.00 81 1018.5
20260502101518 30 307 1.7 3.5 0.00 0.09 0.00 80 1018.4
20260502091514 31 309 1.7 2.6 0.00 0.10 0.00 78 1018.3
20260502071528 33 314 1.7 3.5 0.00 0.22 0.00 72 1018.2
20260502070039 33 314 1.7 3.5 0.00 0.23 0.00 72 1018.3
20260502064520 33 318 1.7 5.2 0.00 0.26 0.00 71 1018.3